GFSNGP_850_thetae_000.txt.gz
Theta_e
323 326 328 328 328 327 327 325 328 326 329 330 332 333 334 336 336 338 341 342 341 341 343 343 344 346 347 346 346 348 347 341 335 330 333 331 326 323 322 320 323 327 329 330
326 327 327 328 329 330 330 328 330 328 331 330 333 336 336 337 337 338 338 339 341 341 342 343 345 345 345 345 345 349 348 343 337 331 334 332 326 323 323 321 325 331 330 329
325 327 329 330 331 329 330 332 329 327 327 328 332 332 333 334 335 335 335 336 338 347 345 346 346 345 347 347 348 350 348 344 339 336 332 333 328 321 322 322 325 332 331 329
325 325 329 327 330 333 334 334 333 330 330 330 333 335 335 335 334 334 334 333 333 333 338 345 347 349 350 350 350 351 347 342 337 336 333 334 329 320 321 324 327 331 332 331
325 324 326 332 332 333 333 335 334 334 333 331 333 333 333 334 333 332 331 332 331 332 334 334 345 350 351 352 351 351 346 339 337 334 334 335 326 321 323 328 331 334 333 324
334 330 330 330 333 333 331 335 332 333 332 331 333 333 332 334 332 332 334 334 333 332 330 329 338 348 351 352 352 349 344 339 337 333 335 332 322 323 327 332 336 335 334 331
333 334 330 331 334 333 333 332 334 332 332 333 332 333 334 337 337 336 335 333 333 332 332 329 338 345 351 351 351 349 344 339 336 335 334 327 327 329 333 337 336 335 333 327
333 332 333 332 334 338 333 333 333 333 333 332 332 332 332 332 331 332 336 338 337 335 332 333 340 347 350 349 345 342 338 337 338 338 338 339 334 336 336 335 334 333 330 323
338 337 332 330 330 331 331 332 332 333 333 332 333 333 333 331 330 329 328 326 335 339 335 346 349 349 348 342 341 340 340 340 337 334 331 333 336 335 337 334 333 331 324 325
334 333 334 330 329 330 331 330 330 330 330 331 332 332 331 328 330 333 333 327 327 339 339 343 349 348 346 343 343 341 338 335 333 330 326 327 331 334 333 333 331 328 324 322
335 334 330 328 327 326 326 328 329 328 327 327 327 331 337 337 338 336 337 338 340 344 345 349 348 346 343 340 338 335 330 325 325 325 324 327 332 335 332 328 328 327 324 325
334 332 329 327 324 323 323 322 322 323 324 324 327 338 334 333 342 342 341 343 346 347 346 344 341 337 333 325 325 324 325 325 322 323 326 330 331 331 329 327 326 325 325 325
330 329 326 321 320 321 321 322 322 322 322 321 321 321 325 341 341 336 339 341 345 342 338 334 334 335 329 328 329 327 327 324 323 329 329 330 328 328 327 325 325 324 325 324
326 319 319 319 321 321 322 322 322 322 322 322 322 322 322 323 330 339 336 334 337 338 338 337 334 327 325 325 324 322 326 333 334 331 329 328 327 328 325 325 325 323 322 321
320 321 320 320 321 320 320 321 321 320 320 321 321 322 322 322 321 321 336 337 336 334 327 328 332 333 334 333 332 330 328 328 327 326 327 327 326 325 323 325 323 323 321 318
319 319 319 318 318 319 319 319 319 318 318 318 318 320 321 323 324 322 334 335 332 328 330 330 330 330 329 324 321 321 321 320 324 327 328 327 325 325 324 323 320 319 316 315
318 318 318 318 318 318 318 318 318 317 317 317 317 317 317 323 323 322 336 335 332 332 331 326 326 329 327 323 322 321 321 326 325 324 323 322 322 324 323 320 315 315 317 316
320 320 320 320 319 319 318 318 318 319 319 318 317 316 317 321 325 326 332 333 333 332 328 327 328 325 323 323 325 327 327 326 325 323 323 323 322 322 319 317 317 317 317 314
321 320 320 320 320 320 320 320 320 321 321 320 320 321 322 323 327 330 331 331 328 327 328 327 324 322 324 326 325 324 324 322 323 323 322 321 321 321 318 319 318 318 316 314
320 320 320 321 321 321 321 320 320 322 321 322 323 323 327 325 327 328 327 327 328 326 326 325 325 324 322 321 321 321 321 322 322 320 320 318 321 320 319 317 316 316 315 312
321 320 321 322 320 319 319 321 321 320 321 320 322 322 323 324 324 324 324 323 322 323 323 322 321 321 322 321 321 320 319 317 314 314 313 315 315 316 315 313 313 313 313 311
318 318 318 318 317 318 318 320 320 320 320 319 319 319 321 319 320 322 324 322 320 320 319 318 318 319 320 318 315 314 315 313 312 314 313 312 312 312 312 312 312 310 310 309
317 317 318 318 317 317 318 319 319 319 320 321 321 322 322 322 322 321 322 321 319 319 317 316 317 318 318 317 314 312 311 310 310 311 313 313 311 310 310 310 308 308 309 308
315 316 315 315 315 316 317 319 319 319 319 321 321 322 322 321 321 321 320 319 318 317 316 314 314 316 317 315 314 312 311 308 307 308 307 307 306 306 307 306 306 307 307 307
315 315 316 314 315 315 316 317 318 320 319 320 321 321 319 319 318 319 318 317 316 315 316 315 314 314 314 312 311 311 307 307 306 306 306 306 305 305 305 306 306 306 306 306
315 314 314 314 315 315 316 316 315 316 318 318 318 317 318 318 318 317 317 316 316 315 315 314 314 313 312 311 311 311 309 307 306 306 306 306 305 305 303 304 304 304 305 305
315 315 315 315 315 315 314 314 314 316 316 315 314 314 316 317 318 317 315 315 315 315 314 314 314 312 311 311 311 310 309 308 307 306 306 305 305 304 303 302 303 303 302 302

GFSNGP_850_thetae_003.txt.gz
Theta_e
322 322 324 325 326 325 325 324 328 326 327 330 331 331 333 339 339 338 340 340 339 339 340 341 342 344 345 345 345 345 346 348 347 347 336 327 330 323 321 320 319 320 323 324
322 321 323 324 325 327 327 323 326 324 326 325 332 332 333 336 337 337 336 337 338 338 339 340 340 341 342 343 344 346 347 347 349 347 336 329 330 326 323 321 320 320 324 326
324 323 325 326 326 327 329 329 327 327 325 326 331 331 333 334 335 335 337 338 338 338 338 338 339 340 341 342 345 345 347 350 349 340 338 331 330 331 323 320 321 321 325 328
323 325 328 326 329 329 333 334 333 332 326 327 330 334 335 335 335 336 337 338 339 339 339 338 341 342 342 343 345 345 348 350 350 345 338 332 332 332 325 320 321 324 324 329
324 324 327 332 334 333 332 333 332 332 331 331 330 333 332 334 336 337 336 334 333 331 328 327 330 335 343 347 347 347 349 350 347 343 342 333 333 330 320 320 321 328 327 330
326 326 330 331 331 333 329 334 331 331 331 331 331 333 329 333 333 334 333 332 330 330 330 330 329 332 339 346 350 350 349 349 348 344 340 332 332 331 325 325 323 332 332 333
331 333 331 331 331 331 334 331 332 330 330 330 329 330 332 334 332 333 336 335 333 332 331 330 331 331 332 344 348 350 350 349 344 341 338 336 337 337 336 334 332 335 333 330
335 334 336 330 332 334 330 330 330 331 331 331 332 331 330 331 331 331 330 331 332 336 337 334 334 333 332 342 348 350 350 348 345 340 339 338 336 335 334 328 327 334 330 330
334 331 328 329 328 329 329 329 329 332 333 335 334 332 330 328 327 328 326 327 328 326 326 331 339 334 335 345 349 348 346 345 341 339 335 334 332 328 327 329 326 331 330 328
331 328 329 327 326 326 328 327 327 327 327 327 326 327 328 329 329 332 330 329 327 327 329 332 339 344 347 348 346 344 342 341 340 339 336 332 331 326 325 328 331 331 328 328
330 330 326 322 322 321 323 327 328 327 327 327 329 331 331 331 330 331 330 330 332 336 342 344 346 345 344 343 342 340 339 334 327 324 324 328 329 326 325 331 329 328 328 327
330 329 323 321 319 320 321 321 322 322 320 321 322 326 331 338 342 340 340 340 338 341 343 345 343 342 340 338 336 331 325 322 325 325 327 328 324 327 331 332 330 328 326 325
328 319 319 321 321 321 321 321 321 321 321 322 322 322 323 324 324 335 340 342 341 337 341 343 341 338 336 333 332 326 328 330 328 327 323 321 326 329 327 328 327 326 325 325
322 320 319 320 318 319 320 320 320 320 319 319 319 320 321 322 322 322 323 336 341 341 339 338 336 335 333 328 329 329 325 323 324 326 330 329 328 327 327 327 324 323 323 322
318 319 318 318 319 319 320 320 320 319 319 319 318 318 318 319 322 321 322 324 335 338 336 335 333 330 326 324 326 328 327 328 328 328 328 328 328 327 326 325 323 322 322 322
318 318 318 318 317 316 315 315 316 318 318 318 318 318 317 316 319 322 321 324 335 335 332 327 325 326 330 330 330 328 326 326 326 326 326 325 325 324 323 323 322 321 320 317
317 317 316 316 317 316 317 317 318 318 318 318 318 317 315 314 316 321 321 324 334 332 326 328 328 327 328 327 326 325 321 320 322 324 323 323 323 322 322 321 320 318 315 316
319 319 319 319 320 320 320 319 319 319 318 319 319 318 317 318 318 321 323 325 333 329 329 329 328 328 328 327 325 322 323 324 325 326 325 323 323 323 321 321 319 315 316 317
320 320 319 319 320 320 320 320 319 319 321 320 319 320 321 320 322 324 327 331 331 329 329 328 327 326 326 325 324 325 325 324 323 323 323 323 323 322 321 319 316 317 317 317
320 319 320 322 320 318 318 319 320 321 320 320 320 321 322 322 322 325 329 330 329 328 327 326 326 325 323 323 322 320 320 320 321 322 322 321 320 320 319 319 318 317 317 317
317 318 317 316 316 317 317 320 319 319 319 318 319 320 319 322 323 322 323 323 324 323 323 324 324 323 322 322 321 321 320 319 316 314 314 314 317 318 317 316 314 314 314 314
316 316 316 316 316 316 317 318 318 318 321 321 321 322 321 320 320 320 321 321 321 320 319 318 319 320 320 320 318 315 315 315 313 313 313 312 312 312 311 312 312 311 312 311
314 315 315 315 314 314 316 318 319 319 320 321 322 322 321 321 321 321 321 321 320 318 316 314 314 316 317 317 314 312 313 311 311 311 311 311 312 311 310 309 309 309 309 307
315 315 314 314 314 315 315 317 318 320 319 321 321 321 320 319 320 321 320 320 320 318 317 313 313 314 316 315 314 313 312 311 309 307 308 311 312 309 308 307 307 307 306 306
316 314 314 314 315 315 315 315 316 318 320 320 320 317 316 317 318 318 318 317 317 316 316 316 314 314 314 313 312 312 311 310 307 306 306 306 306 306 305 306 306 306 306 306
315 315 315 315 314 315 314 314 314 315 317 317 316 317 316 317 318 317 316 315 316 316 315 315 314 314 313 313 312 311 311 310 309 307 306 305 306 306 306 305 304 305 305 305
316 315 315 314 313 314 313 313 312 314 316 316 314 314 314 314 314 315 317 317 314 313 314 314 313 313 313 312 311 311 311 310 309 308 307 306 306 305 305 304 304 303 303 304

GFSNGP_850_thetae_006.txt.gz
Theta_e
322 319 321 322 323 322 322 322 325 325 324 326 329 330 331 337 337 336 336 337 339 340 340 341 342 343 344 346 347 347 346 342 341 345 348 347 344 330 326 323 322 322 320 321
321 320 320 322 322 324 324 323 323 324 324 322 328 330 332 335 337 338 338 338 338 338 339 339 339 339 341 343 344 346 346 345 345 346 348 348 340 340 332 326 324 321 320 323
321 318 318 320 322 322 324 323 324 325 326 323 328 330 331 333 337 339 339 339 339 339 338 337 337 337 339 340 343 344 345 346 347 349 350 348 335 335 338 327 320 319 321 325
322 321 322 322 323 323 325 330 328 328 325 325 328 331 333 334 335 337 338 338 339 336 336 336 337 338 338 339 340 341 343 345 348 350 349 347 337 335 335 331 324 325 326 326
320 319 323 332 332 331 332 332 331 332 331 330 329 330 331 332 333 333 335 336 335 337 338 330 328 332 334 336 341 343 344 345 347 348 349 346 338 332 336 336 332 333 331 330
322 323 330 329 330 331 330 333 329 329 329 328 329 329 328 331 331 334 335 337 336 330 329 328 328 329 328 331 339 340 344 346 348 348 349 346 342 333 336 338 338 335 334 332
330 330 330 330 329 330 333 329 328 328 329 330 329 329 332 333 333 332 332 332 332 333 332 333 331 332 332 332 332 337 343 348 348 348 349 345 339 338 338 337 337 332 331 325
333 334 335 328 330 331 330 329 330 330 330 329 330 334 331 329 328 328 328 328 328 327 326 326 326 331 334 334 339 335 344 348 347 347 346 342 339 338 337 335 334 330 327 328
331 331 327 326 325 328 329 328 327 327 327 330 331 331 330 330 330 330 330 330 329 328 327 326 326 331 326 340 339 344 347 346 344 342 341 339 337 334 333 331 328 326 325 326
331 328 326 322 324 325 325 325 326 329 331 331 331 331 333 333 332 330 331 331 332 332 332 332 332 340 342 345 345 346 344 342 341 338 336 332 328 327 329 329 328 325 328 327
328 326 324 320 321 320 320 321 323 325 326 327 329 329 331 333 336 336 338 335 332 331 330 335 338 343 344 345 344 341 339 339 337 339 337 335 332 330 327 327 325 324 326 327
327 325 326 321 321 321 322 321 322 322 321 322 323 324 325 328 330 337 337 335 336 332 333 332 332 336 341 341 339 337 334 331 332 335 331 330 329 330 328 326 323 325 325 328
322 320 320 320 318 319 320 319 319 320 320 320 320 321 322 322 323 324 326 331 336 335 331 335 338 340 340 339 338 337 334 332 330 326 326 326 328 327 325 325 325 326 327 325
319 319 318 319 317 318 319 318 318 318 318 318 318 319 318 319 320 321 321 323 324 333 337 337 338 337 336 335 332 331 326 325 328 326 327 325 323 321 324 328 327 324 323 323
319 319 319 318 318 317 316 315 314 315 315 316 317 317 317 317 317 318 319 320 320 326 337 338 336 334 331 328 326 327 327 327 323 325 328 329 328 328 326 327 325 323 322 321
317 317 317 317 317 317 316 316 316 316 317 317 317 317 316 315 314 314 318 319 320 322 331 337 335 332 327 325 325 326 328 327 328 329 328 327 327 326 325 323 323 323 321 321
316 318 318 319 318 318 319 319 319 319 319 318 319 319 318 317 317 314 315 318 319 326 334 335 333 328 325 327 326 324 327 326 323 321 322 322 322 323 323 322 321 320 319 317
320 319 319 319 319 319 319 319 318 318 318 320 319 319 319 321 321 319 319 319 322 330 333 331 326 327 327 327 327 326 323 321 322 324 325 325 323 323 323 321 320 319 318 315
318 318 318 319 319 318 318 318 318 318 320 320 319 319 320 321 323 322 323 325 329 332 330 329 328 327 327 326 326 324 323 324 323 323 323 323 323 323 322 320 319 319 316 316
318 318 318 316 316 316 317 317 319 320 319 319 318 318 320 321 323 323 327 329 327 327 328 327 327 326 325 325 325 323 321 320 320 320 321 322 322 321 320 318 317 317 317 318
316 316 316 315 315 316 317 317 318 318 318 319 319 319 321 321 322 323 323 324 324 324 324 323 324 324 324 322 321 321 320 320 319 318 317 316 317 318 317 317 316 318 316 315
315 314 314 314 314 314 316 318 318 318 320 320 321 321 321 322 322 321 321 321 320 321 321 320 321 321 320 319 319 318 315 314 315 313 313 312 311 313 314 313 313 312 311 312
314 314 314 314 314 315 316 318 319 318 320 321 321 321 321 320 320 319 320 320 319 318 316 315 314 314 315 317 316 313 313 313 312 311 311 311 310 311 310 309 309 309 309 308
315 315 314 314 314 315 315 315 317 320 319 320 321 320 317 317 318 319 320 320 320 318 316 313 313 314 315 314 313 313 313 312 311 309 307 307 310 311 312 312 310 308 307 307
315 315 314 314 314 315 313 314 313 315 318 318 317 317 317 317 317 317 317 317 318 317 316 316 314 314 314 314 313 312 312 311 310 310 308 306 306 306 306 307 306 306 306 306
315 315 315 315 314 313 314 313 312 313 315 316 314 314 314 314 314 316 316 315 313 315 315 315 315 314 314 313 313 312 312 311 311 310 309 308 306 305 306 306 306 304 304 304
315 315 314 313 311 312 312 313 312 312 312 313 313 313 313 313 313 314 314 314 316 316 314 312 313 314 314 313 313 312 311 310 310 309 309 308 306 306 306 305 305 304 304 303

GFSNGP_850_thetae_009.txt.gz
Theta_e
330 331 327 326 324 325 327 329 331 329 331 333 339 340 340 337 341 339 340 341 341 339 339 340 341 342 343 345 347 349 349 348 348 346 343 346 348 347 340 332 328 325 321 320
326 328 327 326 326 325 326 326 328 329 332 332 335 335 337 338 341 340 339 338 337 337 338 338 339 340 341 343 344 346 347 347 348 349 349 348 349 348 342 332 330 332 330 327
332 326 326 326 327 326 327 328 328 330 331 335 333 335 336 338 340 341 338 337 337 338 338 339 339 340 341 341 342 343 343 344 345 347 348 349 349 348 339 335 331 332 330 331
333 327 326 326 326 327 327 328 329 329 332 336 336 334 336 336 339 340 339 338 338 337 338 338 338 338 338 338 338 339 340 342 344 345 347 348 348 347 341 338 334 330 334 324
331 330 330 328 331 326 326 327 329 330 333 333 331 334 335 331 333 334 335 337 337 338 338 338 336 333 333 332 333 335 337 340 342 344 346 348 348 346 340 338 334 336 327 327
334 334 330 336 334 332 334 332 335 336 337 336 333 335 339 331 332 333 334 334 336 337 333 329 328 327 328 329 330 331 334 340 345 347 347 348 348 346 340 335 334 335 334 335
340 338 332 333 331 332 335 335 334 334 334 334 337 337 334 334 334 334 335 338 337 333 331 330 330 331 332 332 331 333 337 339 345 348 348 348 348 344 338 335 335 335 330 335
339 340 338 328 332 337 336 333 333 334 334 334 334 334 335 335 331 329 329 328 328 329 329 329 330 330 330 333 334 336 337 343 347 348 347 347 347 344 338 333 335 331 329 331
336 336 328 325 327 329 333 332 333 334 334 334 337 338 336 334 332 332 332 331 332 331 331 330 329 328 327 328 330 332 339 346 346 346 345 346 345 341 337 336 328 331 328 325
334 331 327 326 325 325 326 328 330 332 332 331 333 335 338 337 336 334 334 333 330 328 329 331 329 329 330 331 339 341 344 346 344 343 342 341 339 337 337 335 330 326 328 325
331 327 325 324 324 325 325 324 324 324 325 325 328 329 335 337 338 337 335 333 330 327 326 329 332 336 338 342 345 345 343 341 340 340 339 337 336 333 330 329 328 329 326 326
331 327 328 325 322 320 320 320 322 321 321 321 322 322 323 323 323 325 329 335 335 333 331 331 331 335 338 340 342 341 340 338 336 335 335 335 332 330 329 329 328 327 327 327
324 323 321 320 319 319 319 319 318 318 318 318 319 319 320 320 321 321 322 323 325 336 333 333 333 333 336 338 339 338 336 335 333 334 333 332 331 330 327 327 327 325 327 324
319 318 318 318 318 317 317 317 316 315 315 316 316 315 316 317 317 317 318 319 320 322 330 337 337 335 335 336 339 338 334 331 329 327 326 325 326 325 324 324 327 327 326 325
318 318 318 318 316 316 315 316 315 315 317 317 316 316 315 314 312 312 314 315 315 315 318 331 338 337 335 333 333 330 325 325 326 326 324 326 327 326 325 324 327 326 324 322
318 318 317 317 316 317 318 319 319 319 318 320 320 318 317 317 317 314 312 313 315 317 320 327 338 337 332 329 326 327 325 325 328 327 328 328 327 325 325 326 326 324 323 322
316 318 315 317 318 318 318 318 318 319 320 319 319 318 319 320 320 317 315 317 318 320 322 331 336 334 331 327 325 325 327 327 327 324 322 322 322 323 323 323 323 322 322 320
318 319 320 320 320 319 318 319 320 320 320 319 319 319 319 320 321 321 319 319 321 324 329 333 334 333 329 326 327 327 326 324 321 322 324 324 324 324 323 323 321 321 320 319
320 318 317 317 318 318 318 319 319 319 319 318 318 318 320 321 322 323 325 327 329 331 330 330 329 326 327 327 326 326 325 323 323 323 322 321 323 323 323 322 321 320 319 318
318 317 316 317 315 316 317 317 317 318 318 319 319 320 321 321 323 323 325 325 326 327 328 328 328 327 326 325 325 324 324 324 320 319 319 319 321 323 323 321 321 319 318 316
314 314 314 314 314 315 317 318 317 317 319 320 321 321 321 322 321 321 321 324 323 324 324 324 324 325 325 325 324 322 321 320 320 319 319 321 322 322 321 320 319 318 317 318
314 314 314 314 314 315 315 318 318 318 320 321 321 320 320 320 321 321 321 320 320 322 322 322 323 322 322 321 320 319 318 316 315 315 315 315 315 316 316 316 317 317 316 315
315 314 314 314 314 314 315 316 319 319 319 320 320 320 318 318 319 321 322 320 319 318 317 316 315 315 315 315 316 314 313 313 312 312 311 312 313 314 314 314 313 312 312 311
315 314 314 314 313 314 314 314 315 317 319 320 320 316 315 315 318 318 320 320 320 318 316 314 313 313 313 313 313 313 313 313 311 310 309 307 309 310 312 313 312 312 312 310
315 314 314 314 314 313 314 313 313 313 314 317 315 316 316 314 315 317 316 315 318 319 317 316 314 313 313 314 313 312 312 311 311 310 310 309 308 307 308 309 309 308 308 308
315 315 315 314 311 312 313 312 312 312 313 316 315 314 314 314 314 314 314 315 315 313 314 317 315 315 315 315 314 313 313 312 311 311 310 309 308 308 306 306 307 307 307 306
313 313 310 310 311 311 312 312 312 311 311 312 312 312 312 312 312 312 312 313 313 314 315 315 313 312 314 315 313 313 313 312 311 310 310 309 309 307 306 306 306 306 306 305

GFSNGP_850_thetae_015.txt.gz
Theta_e
332 332 332 329 327 327 328 330 334 334 335 337 338 338 337 334 334 334 334 341 346 347 349 350 349 350 349 347 348 349 349 350 351 351 353 353 352 354 353 350 344 337 330 325
332 331 330 331 331 329 328 327 329 330 332 334 335 336 336 334 334 334 334 335 346 348 349 353 352 353 353 351 352 352 353 352 353 355 354 353 354 355 354 353 351 345 340 332
334 333 334 333 331 331 331 331 329 330 330 331 334 336 336 335 334 334 334 334 339 347 350 352 353 356 355 356 354 355 354 358 356 359 358 358 357 356 355 354 352 347 344 337
335 335 338 335 334 332 331 332 332 332 331 331 336 332 332 332 333 333 334 334 335 345 349 352 355 355 355 358 357 357 358 357 359 358 361 360 360 358 356 355 352 348 344 340
335 335 336 336 336 338 340 339 334 333 334 332 329 328 332 330 331 332 333 334 336 346 348 352 355 355 357 358 359 359 359 359 359 360 360 362 360 356 355 354 352 348 344 343
336 336 338 337 338 337 338 338 333 335 337 333 331 330 333 330 330 332 337 337 339 347 349 353 355 356 358 358 359 359 359 360 359 359 359 359 357 356 354 352 349 346 345 340
335 337 335 339 337 335 339 338 343 341 341 340 337 331 330 336 332 335 339 339 348 349 351 355 355 354 356 356 356 355 354 356 357 358 358 358 355 356 352 349 347 346 343 340
335 334 335 337 337 339 342 340 341 341 340 340 339 330 339 344 344 343 343 345 349 350 352 354 353 354 354 352 350 351 353 355 358 359 357 356 355 353 350 349 347 346 342 338
335 337 339 336 337 337 338 340 341 341 341 341 339 342 345 346 347 348 349 348 349 351 352 351 350 351 351 353 352 353 355 356 359 357 355 355 354 352 347 347 345 342 340 340
341 339 337 335 335 337 339 340 342 342 342 342 344 344 345 345 346 347 349 350 351 351 352 353 354 355 359 351 353 356 358 354 350 353 353 349 349 348 345 344 343 341 343 340
342 338 335 333 333 334 335 335 338 339 339 344 345 345 345 345 345 344 343 344 346 348 350 352 353 353 352 353 355 353 344 343 349 351 348 345 344 343 341 340 340 340 339 339
342 335 336 331 329 330 330 330 330 332 332 333 336 337 339 342 345 344 343 343 344 346 348 351 351 351 351 352 350 347 347 347 346 344 344 342 341 339 340 338 339 338 337 336
336 332 327 325 324 323 323 324 325 325 325 326 326 327 327 328 331 333 340 343 343 345 346 348 349 349 349 349 349 349 348 347 345 345 342 341 341 339 337 335 334 335 331 328
327 325 324 324 323 322 323 323 323 324 324 323 324 324 323 323 323 325 328 333 340 345 346 346 346 347 347 348 348 346 344 341 340 340 339 337 336 335 334 333 331 329 328 328
323 324 324 322 322 322 320 321 323 324 324 325 324 326 326 326 325 324 323 326 329 335 343 345 344 344 343 345 345 344 340 339 338 337 336 334 334 334 332 331 330 330 325 326
321 320 320 320 318 318 322 323 319 323 325 325 325 326 328 328 328 328 327 326 329 331 333 340 344 343 343 343 342 340 338 336 335 334 333 332 332 331 330 329 331 330 326 324
318 319 319 320 321 319 318 322 324 321 324 322 324 326 327 328 328 329 329 329 330 330 332 335 340 339 342 340 338 335 334 333 332 333 331 332 332 331 329 328 328 329 328 326
316 315 316 319 321 321 318 320 323 324 324 324 324 326 327 328 330 330 330 331 332 331 333 335 338 336 339 337 335 332 332 332 330 331 330 330 329 328 328 327 326 325 326 326
318 315 316 318 321 322 323 322 323 324 325 325 326 326 327 328 329 330 330 331 331 331 332 335 335 336 337 336 334 332 331 329 329 329 330 329 328 328 327 326 326 325 324 324
320 319 319 320 320 321 322 323 323 324 325 325 325 326 326 327 328 329 330 331 331 331 332 334 335 335 335 331 331 331 330 330 330 330 330 329 327 327 326 325 325 324 324 324
318 318 318 318 319 322 323 323 323 325 324 325 326 325 326 326 327 328 328 328 330 331 331 331 331 331 330 328 327 330 329 329 328 327 327 326 325 325 324 324 323 322 322 321
318 318 318 318 318 320 322 323 324 325 325 325 324 324 324 326 327 327 327 326 326 327 327 328 328 328 327 326 327 327 326 326 325 325 324 324 323 323 322 323 322 321 321 320
318 318 317 318 319 319 318 319 320 322 324 323 323 322 322 322 323 324 324 325 324 324 323 322 317 319 320 322 323 322 321 321 320 319 319 319 318 319 319 319 319 318 319 319
319 318 319 319 318 318 318 317 318 318 319 322 321 320 320 319 319 321 321 320 319 322 322 319 317 315 317 320 319 318 318 317 317 317 316 315 314 314 315 315 317 317 317 316
319 318 318 318 316 317 317 317 318 316 317 320 319 319 319 318 318 317 318 320 317 319 322 319 316 315 316 318 319 318 318 317 317 316 315 314 314 313 313 313 314 315 316 316
316 316 317 316 316 316 315 315 315 316 315 316 316 316 316 316 316 317 318 317 317 317 316 321 320 318 318 317 317 318 318 317 316 315 314 313 313 314 313 312 312 312 312 313
313 312 313 313 312 312 312 313 313 314 314 314 313 314 315 316 316 316 316 316 316 316 316 317 317 317 318 317 316 316 317 316 315 315 314 314 314 313 313 312 311 311 311 311

GFSNGP_850_thetae_021.txt.gz
Theta_e
326 327 328 328 330 328 326 324 325 324 324 324 327 338 337 339 339 338 337 338 345 348 347 348 348 348 349 350 350 348 349 350 349 347 347 342 337 334 332 339 340 344 347 347
329 327 327 327 329 331 328 327 327 327 326 327 328 338 338 338 338 337 336 343 344 349 347 346 346 346 348 349 350 348 348 347 348 351 351 347 342 340 341 339 343 346 348 350
327 329 330 327 327 329 331 329 328 327 326 327 327 332 337 340 337 336 336 338 343 344 347 346 346 345 346 346 349 349 347 348 347 351 351 349 348 348 349 349 350 351 352 352
327 331 333 331 330 330 331 332 328 327 327 328 328 331 331 330 331 334 331 339 340 338 340 348 347 346 346 347 348 349 347 347 347 346 348 350 351 350 352 354 353 353 355 356
329 329 329 330 329 332 331 330 333 336 335 336 338 332 330 331 330 330 329 334 334 341 339 342 345 350 347 347 348 348 348 346 347 347 347 350 351 353 353 354 355 356 356 357
327 328 329 329 330 331 336 338 342 341 340 340 338 336 335 339 338 336 332 330 330 336 337 340 343 346 351 351 348 348 347 347 346 348 348 349 352 353 354 356 356 357 358 358
327 326 328 330 328 335 338 338 341 341 342 342 341 340 339 337 335 334 336 333 331 334 333 335 338 345 350 355 352 350 347 349 348 348 349 351 352 354 356 357 358 358 358 357
330 330 332 337 335 336 336 343 343 341 340 340 339 338 336 337 337 332 335 341 334 332 329 329 333 341 348 356 355 352 350 352 351 353 356 356 359 359 359 359 358 359 356 352
332 341 338 340 341 340 346 347 349 349 347 345 349 350 351 353 352 350 347 345 340 334 333 334 336 346 349 355 358 360 356 355 361 362 364 365 366 361 358 361 359 353 351 347
335 335 336 337 334 343 342 342 343 345 346 346 347 349 352 353 354 354 354 355 357 356 358 360 355 354 354 358 358 362 362 362 365 364 365 365 364 360 361 358 353 349 348 346
334 336 334 340 341 340 339 337 339 339 340 343 345 345 347 348 351 354 356 357 357 356 358 359 360 361 362 361 362 362 363 364 363 362 361 361 360 359 356 351 349 347 345 343
336 328 330 331 333 336 335 333 333 336 335 337 339 339 344 345 347 349 351 351 356 359 359 360 360 361 361 360 360 361 361 356 358 358 358 357 356 352 350 347 345 343 342 341
331 326 325 324 326 327 328 328 329 328 325 329 335 337 339 342 345 346 347 349 351 350 358 359 359 359 359 357 356 354 352 351 353 355 352 353 347 346 345 345 342 341 340 341
326 326 326 324 323 326 327 327 328 328 329 329 327 327 335 339 341 341 341 342 344 347 349 351 351 351 351 350 348 346 344 345 347 346 342 345 346 343 341 339 339 338 338 338
325 325 326 325 325 325 325 324 324 325 327 328 331 331 329 326 329 335 335 341 342 342 344 348 348 348 348 346 343 344 342 341 340 338 337 337 337 337 334 330 331 334 335 335
321 322 322 322 323 324 321 321 323 325 325 328 328 327 330 331 331 331 334 334 338 342 340 341 347 349 348 348 350 350 347 346 342 340 339 339 337 335 334 332 330 326 326 325
322 321 319 318 321 322 323 321 318 321 325 326 328 330 332 324 328 331 331 332 334 337 341 340 344 345 344 342 343 341 340 339 345 340 341 338 336 337 336 335 332 330 329 328
320 320 320 317 318 320 319 322 322 321 321 319 323 327 329 331 332 326 327 329 333 334 338 340 340 338 339 341 341 339 337 337 335 335 335 334 333 334 332 331 331 331 330 328
321 320 321 322 322 322 323 318 321 324 325 322 321 320 324 328 329 332 332 330 328 323 330 336 336 336 338 335 337 334 335 332 334 334 332 332 333 332 331 330 331 330 329 328
320 321 322 322 323 323 324 324 324 325 326 326 327 326 326 322 321 327 328 330 331 331 327 324 328 333 335 335 332 330 328 330 331 329 330 331 330 329 328 327 328 328 327 327
320 322 321 321 322 322 324 323 324 324 325 325 325 326 326 327 327 327 327 328 328 329 330 331 330 324 321 324 326 326 330 330 330 330 330 329 329 328 328 328 326 325 325 325
320 319 320 321 321 321 321 322 323 324 323 322 322 323 323 324 325 325 326 325 326 329 328 328 329 329 328 329 329 326 328 328 328 328 328 327 327 325 325 325 326 326 326 325
318 319 319 319 318 318 319 319 322 323 322 321 321 322 321 323 322 321 322 323 323 323 322 320 323 326 326 322 322 326 325 325 325 324 324 323 322 321 320 322 324 324 324 323
318 317 317 316 318 318 317 317 319 321 320 319 320 319 318 319 319 322 321 317 316 321 321 318 315 317 322 321 320 320 321 321 320 319 319 319 319 318 318 317 317 319 318 319
316 314 313 313 312 312 313 314 315 316 317 317 316 317 316 317 317 319 320 319 319 321 320 317 318 318 316 318 319 319 319 319 318 318 318 317 316 316 315 314 314 315 315 317
312 311 310 309 309 309 309 311 312 312 313 314 314 314 313 316 316 316 316 317 317 317 317 320 318 318 319 318 318 318 319 318 318 318 318 317 317 316 315 315 314 313 313 313
309 309 308 308 307 308 308 308 309 310 310 310 311 312 314 314 314 314 314 314 313 316 315 317 316 316 317 317 317 317 318 318 318 317 317 317 316 315 314 313 314 313 313 313

GFSNGP_850_thetae_024.txt.gz
Theta_e
320 322 324 325 325 325 323 324 323 324 319 319 320 320 323 327 334 339 339 339 341 345 345 346 346 346 346 346 346 345 348 349 350 349 348 347 345 341 337 336 340 344 349 349
323 325 324 325 325 326 325 325 323 321 321 319 321 322 327 329 329 336 339 339 337 342 345 347 347 347 347 347 346 347 348 348 348 349 349 348 346 343 339 336 336 338 341 341
320 323 324 325 326 326 326 325 324 322 322 321 322 325 328 331 334 336 336 338 339 343 343 346 347 347 347 347 347 348 348 348 348 347 347 347 345 345 342 337 336 338 341 342
320 321 325 324 325 325 324 326 325 324 323 323 324 326 328 330 337 336 334 333 341 343 345 347 347 347 347 348 348 348 349 348 348 348 346 344 343 342 343 343 342 341 343 343
321 324 325 329 327 326 324 325 327 324 325 325 328 328 336 332 329 331 333 334 335 340 345 345 347 347 347 348 349 350 350 348 348 347 347 345 342 339 344 348 348 347 345 347
322 325 327 326 328 328 328 330 339 335 335 334 330 327 329 337 335 333 329 333 333 334 342 347 344 345 347 347 347 347 347 346 346 347 347 346 343 345 346 348 349 351 350 351
322 327 322 324 327 333 333 332 339 338 337 335 336 334 339 337 336 334 334 332 332 330 333 336 343 346 346 345 346 345 345 346 350 348 348 346 347 348 349 349 352 354 354 354
327 328 327 329 333 330 330 340 339 340 338 338 343 347 347 342 335 332 333 331 334 335 331 335 335 337 338 347 344 344 346 348 350 350 349 350 349 350 351 353 354 355 355 354
328 333 326 335 338 344 345 346 346 346 346 345 348 350 347 348 349 348 341 339 337 332 334 331 331 334 337 343 344 347 348 348 349 350 350 350 350 352 354 354 355 355 353 337
329 331 330 327 330 337 341 343 345 346 346 348 351 352 353 351 349 347 349 352 346 339 335 333 332 332 336 333 336 347 350 350 350 349 350 351 352 352 353 355 356 356 349 355
330 329 329 326 327 334 334 339 341 341 343 344 347 349 352 353 353 352 354 358 360 360 356 356 350 333 334 338 347 352 353 352 354 353 357 358 358 359 358 358 354 353 354 350
332 327 325 325 327 330 329 330 334 337 338 340 344 345 347 349 350 350 350 351 353 352 350 356 360 361 353 353 356 357 355 354 357 361 363 364 362 360 355 350 351 348 345 345
328 325 325 325 325 325 327 328 326 329 332 335 338 342 343 342 343 345 347 348 347 345 337 337 333 334 351 362 360 359 360 361 364 361 356 356 351 347 350 349 346 345 345 340
326 327 326 325 324 325 326 327 328 330 330 326 328 330 334 336 339 341 339 336 336 338 335 338 340 335 348 352 353 354 356 355 351 351 341 333 331 332 339 343 344 341 339 340
326 326 326 325 325 326 327 328 328 328 327 328 331 331 331 333 334 339 342 340 339 340 343 344 345 345 345 348 350 347 346 346 344 344 346 345 344 340 341 344 340 338 338 338
324 324 324 323 324 325 327 327 326 328 330 331 329 327 330 331 333 334 338 339 339 338 340 342 343 344 343 344 344 343 342 343 342 341 343 343 340 338 339 339 337 335 334 333
321 320 321 321 320 320 321 324 324 324 328 329 329 331 329 326 328 331 333 336 338 339 343 343 343 343 342 345 344 342 341 339 336 334 335 334 332 333 330 328 324 325 326 325
318 317 319 319 322 322 322 321 320 320 320 325 327 328 328 331 331 327 326 328 336 339 338 338 339 342 341 339 338 337 339 343 339 337 335 334 333 335 335 333 330 329 328 327
321 322 322 321 323 322 320 322 324 326 321 321 321 323 325 326 327 329 329 326 322 322 328 333 335 335 335 336 335 336 337 337 338 337 337 336 337 336 333 334 332 331 330 328
321 322 323 323 323 324 324 325 325 325 326 326 326 327 323 321 321 324 328 329 331 331 328 321 320 323 324 332 333 329 331 334 334 334 332 333 333 332 331 332 332 331 329 329
321 321 321 322 323 323 324 324 324 323 324 325 325 326 326 326 326 325 323 322 327 329 330 327 322 321 322 324 323 329 328 327 326 327 327 328 330 329 329 328 329 328 328 327
319 319 318 320 319 322 323 323 322 321 322 323 323 325 324 324 324 324 325 324 324 325 325 327 328 327 326 327 328 326 325 325 329 329 329 329 329 328 328 327 327 326 325 325
317 318 315 315 315 316 319 321 320 320 320 319 319 322 321 321 320 318 318 321 322 320 319 318 316 322 323 320 326 326 327 328 327 326 327 327 326 325 323 323 324 325 325 324
313 312 311 312 313 315 314 317 316 315 315 316 317 317 318 319 321 319 318 319 321 320 318 318 319 316 322 320 324 324 320 321 322 322 321 320 320 320 320 320 323 324 325 325
311 311 310 310 310 310 310 311 312 313 313 313 314 316 317 316 317 316 317 317 317 317 319 319 318 318 319 318 319 319 318 318 318 318 318 318 318 318 317 316 315 316 316 319
308 308 307 307 308 308 308 309 309 310 310 312 312 313 314 314 315 314 315 316 316 316 316 316 317 317 317 317 317 318 318 318 318 317 317 316 316 316 316 315 315 314 313 314
307 307 306 306 306 307 307 308 309 309 311 311 311 310 311 311 310 310 310 310 310 315 314 314 314 314 314 315 316 316 317 317 317 316 317 317 316 315 314 314 314 313 313 313

GFSNGP_850_thetae_027.txt.gz
Theta_e
317 318 320 321 320 321 320 323 323 324 318 318 319 319 319 326 325 326 332 340 342 343 343 343 341 342 342 344 344 344 345 346 346 346 346 348 348 349 348 339 336 337 344 348
317 319 320 322 321 322 322 323 321 322 318 317 320 321 320 324 326 326 328 334 339 341 343 343 343 343 343 345 345 345 345 344 346 346 346 348 348 348 349 345 338 335 336 339
317 317 319 322 322 322 322 322 322 322 321 318 318 318 318 322 324 325 326 328 338 340 340 339 340 341 343 344 345 346 346 346 346 345 345 347 349 349 348 348 346 340 337 337
316 317 324 322 322 323 323 323 321 321 320 320 320 324 325 326 328 328 329 331 337 340 340 340 338 340 340 344 345 346 346 347 348 346 345 346 348 348 349 347 345 343 340 338
318 319 320 323 324 323 322 322 323 323 321 320 322 324 326 326 327 328 329 332 335 338 338 337 337 337 343 345 345 347 346 346 347 345 346 346 347 348 349 350 348 343 342 342
318 320 324 323 329 329 327 324 323 323 323 322 322 322 323 330 329 332 335 334 335 336 336 338 340 342 345 346 346 347 346 346 346 346 347 346 346 347 348 349 348 348 346 343
319 322 322 327 332 333 329 326 335 328 325 325 324 325 328 334 335 333 331 331 332 333 334 336 340 344 344 346 346 346 346 346 348 348 348 347 347 349 348 348 350 351 349 347
319 324 324 330 332 338 334 336 336 334 333 332 335 337 337 336 336 335 333 333 334 337 333 332 337 344 345 346 342 344 347 347 347 348 348 350 350 352 351 352 353 353 351 351
323 325 326 328 330 328 330 335 340 337 339 344 346 343 342 342 338 336 334 333 334 335 338 336 335 345 344 345 343 344 346 347 346 347 349 352 352 351 353 355 355 358 355 353
327 329 329 331 329 330 331 334 339 344 347 348 350 350 349 347 346 346 346 343 341 339 341 344 343 340 334 340 345 345 346 345 345 346 348 352 354 355 355 356 356 356 354 350
327 328 328 329 326 328 329 333 339 342 345 346 349 349 351 352 353 353 354 353 352 351 351 351 351 351 351 348 340 343 346 346 347 348 350 353 353 354 355 356 356 353 351 350
327 326 326 326 324 326 328 329 333 336 338 340 344 346 349 350 349 349 349 348 348 347 347 347 342 338 335 342 355 351 350 348 348 349 350 352 353 356 356 356 356 353 350 348
325 326 326 325 324 326 328 327 328 330 331 333 335 340 342 342 343 340 338 337 337 336 335 335 335 335 333 334 333 347 357 355 354 353 352 354 355 354 350 345 337 337 334 333
325 326 325 326 325 325 328 328 330 330 331 332 334 336 339 340 340 339 339 339 339 338 337 340 340 339 341 335 334 335 336 336 339 349 354 356 353 348 339 336 335 332 331 331
326 325 325 324 325 326 328 329 329 328 328 331 332 333 334 337 339 340 340 341 338 340 340 338 338 338 337 335 339 337 340 337 337 337 342 342 339 334 335 334 333 332 338 341
325 325 324 325 326 326 328 328 328 329 329 328 327 330 331 332 336 339 340 340 340 341 341 341 341 340 341 342 342 336 331 333 336 333 337 336 332 331 331 331 337 342 341 338
322 320 321 321 322 323 322 324 326 327 329 329 330 327 323 323 325 331 337 338 338 339 338 339 339 339 341 341 340 339 339 340 340 338 336 336 340 343 341 342 341 339 339 338
319 320 321 321 323 323 322 322 321 322 326 326 327 327 327 326 328 327 325 328 333 334 334 335 337 338 337 337 339 340 337 336 336 334 335 338 338 337 335 335 335 335 335 334
322 322 323 322 321 321 324 325 324 324 323 323 322 323 325 326 327 328 327 326 325 323 320 321 323 330 332 332 335 336 338 337 337 335 333 332 330 329 327 326 326 326 326 325
320 321 323 323 322 323 324 325 325 325 325 325 325 322 322 322 321 323 325 328 327 328 327 323 323 323 324 326 329 334 335 336 335 335 334 333 334 334 333 330 328 328 328 327
320 322 322 323 323 323 322 322 323 323 324 324 325 325 325 325 325 324 324 323 319 318 325 327 326 326 324 323 322 324 328 329 330 332 331 332 332 332 332 331 331 330 330 330
314 316 318 321 321 320 320 322 323 321 323 323 322 321 323 322 320 321 320 318 317 316 319 318 322 326 325 326 327 325 326 326 326 327 327 326 328 329 329 329 329 329 329 329
312 312 314 316 315 315 316 316 317 317 318 319 321 321 319 318 318 318 319 320 320 318 318 319 317 319 321 324 327 327 328 328 327 327 327 327 327 327 326 326 325 325 326 326
310 309 309 310 311 311 311 312 313 315 315 315 316 317 319 319 317 317 317 318 319 318 318 317 318 318 319 322 325 322 326 326 326 325 326 326 325 326 324 324 324 324 325 325
308 308 308 308 308 309 310 310 311 312 313 314 313 313 314 315 316 316 317 317 316 317 317 316 317 317 318 318 318 318 318 318 319 321 321 317 316 316 316 316 317 318 321 324
306 306 307 307 307 308 309 309 311 311 311 311 311 310 310 311 312 313 314 315 315 315 314 314 314 315 316 317 317 317 318 319 317 317 316 315 314 315 315 315 315 314 314 315
305 305 306 307 307 307 306 307 307 308 308 308 307 306 306 307 308 308 309 310 311 310 309 309 309 309 310 311 312 314 315 315 316 316 317 317 316 314 314 314 314 314 313 313

GFSNGP_850_thetae_030.txt.gz
Theta_e
316 316 317 318 319 319 319 321 322 323 322 321 319 318 320 325 326 330 329 331 331 336 339 340 340 340 341 341 342 342 343 343 342 343 344 344 345 345 345 347 348 345 337 341
316 317 317 318 319 320 320 319 319 321 320 317 320 321 320 322 323 324 326 327 326 329 339 341 340 340 340 341 341 342 342 342 343 344 343 343 344 345 346 345 348 348 342 337
316 316 317 319 319 319 319 319 319 320 320 319 318 318 319 321 324 324 326 326 326 327 329 336 341 342 341 341 341 342 342 342 343 344 344 343 344 345 346 346 347 348 348 342
314 315 319 318 317 320 320 320 319 318 320 320 321 323 325 326 325 326 326 326 326 326 328 330 335 341 342 342 342 343 342 343 344 345 344 345 344 344 345 345 346 346 347 347
315 316 317 317 326 330 330 328 321 321 320 319 321 321 322 324 324 325 327 327 328 328 330 335 338 339 342 342 342 343 344 345 344 345 345 345 345 344 345 345 346 345 345 347
313 317 320 321 330 330 331 333 327 326 321 321 319 320 322 327 325 326 327 327 328 330 334 336 339 340 340 340 341 341 342 342 343 345 345 346 345 345 345 345 346 347 347 346
312 318 318 319 328 332 330 329 332 332 333 322 321 324 327 327 325 326 328 329 333 333 333 335 337 338 338 339 340 339 341 343 345 346 346 346 347 348 347 348 347 348 348 348
312 317 317 324 328 335 330 331 332 332 335 336 323 325 326 328 333 333 332 332 334 332 331 332 337 340 341 342 342 343 345 346 347 346 346 347 349 350 352 353 352 352 353 352
313 314 316 323 329 330 329 331 332 331 335 340 328 329 334 338 341 340 338 336 337 336 337 337 334 340 343 345 346 346 347 347 347 348 350 352 352 353 350 353 353 354 352 353
318 319 322 325 328 328 330 331 333 333 340 345 339 348 351 353 354 354 353 353 351 348 349 349 349 348 345 339 342 344 344 344 346 348 350 353 354 354 354 350 339 348 353 352
315 318 326 327 326 330 329 335 332 338 345 344 349 350 351 350 350 348 348 347 347 347 346 344 342 341 339 339 338 340 347 345 346 345 347 350 353 355 354 355 355 356 355 356
314 317 324 325 325 329 329 330 330 336 341 341 342 342 344 344 344 345 345 345 344 340 338 336 334 334 333 334 333 333 334 334 337 346 346 348 351 353 355 356 355 356 355 356
316 317 322 325 326 328 328 329 331 334 337 339 340 340 339 338 337 336 336 335 335 334 334 335 335 334 334 335 335 335 334 335 340 343 347 348 349 353 354 356 356 356 354 349
317 320 325 326 325 327 328 331 332 333 335 338 340 340 340 339 338 337 337 339 338 337 337 337 337 337 336 334 335 335 336 336 336 342 353 350 349 351 351 350 346 337 334 336
319 322 325 325 326 326 327 329 331 331 331 334 337 339 339 339 339 339 339 338 338 338 339 339 339 340 340 339 340 338 332 332 334 339 345 347 348 348 343 339 336 334 333 333
324 325 324 325 326 327 328 328 328 328 329 329 332 337 338 339 340 340 339 338 337 337 338 339 339 340 339 339 338 337 337 333 333 337 340 341 336 336 336 336 332 331 329 332
321 322 323 323 323 325 327 328 329 329 329 327 326 326 330 334 336 336 336 336 336 335 334 333 335 336 339 336 334 335 336 336 335 333 333 333 328 327 329 331 332 332 332 332
321 322 322 322 323 322 322 323 324 326 328 328 328 328 327 324 325 325 324 323 324 326 327 328 329 334 336 337 336 333 334 337 337 334 334 333 332 332 332 331 334 334 338 339
320 322 322 324 325 325 325 325 324 323 321 325 324 325 327 328 327 327 327 326 325 324 322 322 324 328 331 334 336 336 334 332 334 336 337 336 336 335 335 338 339 338 338 337
323 322 322 322 324 325 325 325 325 325 325 325 325 324 325 322 320 321 321 320 323 325 325 325 324 324 323 325 328 333 334 334 334 333 332 333 334 336 333 333 333 330 331 329
318 319 319 322 323 323 323 323 323 323 323 323 322 320 319 318 318 317 317 318 319 318 318 325 326 324 325 323 322 324 328 328 332 333 332 332 332 331 327 327 326 327 327 326
316 316 318 317 316 316 320 321 321 321 320 320 318 318 319 319 320 320 319 318 318 318 317 317 319 321 325 327 327 327 327 326 327 326 326 326 329 330 330 329 330 329 329 328
311 311 311 313 315 315 316 316 317 318 318 319 319 318 318 317 317 318 317 317 318 318 317 318 318 322 325 324 326 327 328 328 327 327 327 328 328 327 327 326 327 328 328 329
308 309 310 310 311 312 313 312 314 314 315 315 316 316 317 317 317 316 316 316 316 317 316 317 317 318 318 319 320 319 322 325 325 325 326 325 324 323 323 323 323 323 322 322
307 307 308 309 310 310 310 310 311 310 310 311 312 314 315 315 315 314 314 314 314 315 315 315 316 316 317 317 318 318 318 316 316 321 320 317 321 322 321 323 324 322 323 323
306 306 306 306 307 308 308 308 308 308 308 307 307 307 308 310 311 311 310 310 310 311 311 311 311 312 313 313 313 315 317 317 317 318 316 315 314 313 313 314 315 315 315 315
306 306 306 306 305 305 305 306 306 306 306 306 305 305 305 304 304 304 304 304 304 304 304 305 306 306 307 307 308 308 307 308 310 312 313 314 313 314 315 314 312 312 312 313

GFSNGP_850_thetae_036.txt.gz
Theta_e
329 326 325 329 328 328 329 329 330 330 331 331 330 330 330 330 329 329 331 334 335 338 339 344 344 346 349 350 349 350 352 354 353 343 343 342 341 341 342 343 343 345 345 346
325 323 323 325 326 327 328 329 330 330 331 331 330 329 329 329 329 329 330 329 330 333 341 344 341 343 348 349 348 349 350 350 352 350 345 343 344 344 343 343 343 344 345 345
326 324 323 325 326 327 327 328 329 331 330 330 330 330 329 329 329 329 330 330 331 332 336 339 341 332 336 334 347 348 345 347 348 349 346 344 347 347 344 343 344 344 344 345
323 323 325 326 327 327 326 327 327 328 328 329 329 328 327 328 328 328 328 328 331 331 332 334 337 337 340 346 340 340 342 345 342 345 345 348 348 344 344 345 345 344 344 344
320 322 324 324 323 324 326 328 327 328 328 328 326 326 327 326 327 329 329 330 331 331 331 332 334 335 337 343 348 347 340 340 342 343 352 356 350 348 353 356 355 354 355 349
317 320 323 323 323 322 325 331 329 332 333 336 335 330 329 327 328 329 329 330 330 330 331 332 330 333 336 342 346 343 334 342 345 344 346 346 346 351 352 357 357 357 357 352
314 316 319 320 324 328 329 338 334 334 336 337 340 340 339 338 337 336 335 333 333 334 333 333 330 329 328 339 343 344 352 353 352 343 343 344 345 346 347 346 354 355 356 356
314 315 316 316 317 321 325 324 329 330 330 332 333 334 336 338 341 341 339 333 335 338 334 333 332 330 333 335 340 346 352 354 353 347 352 356 350 349 350 355 354 353 347 346
313 314 315 315 316 318 318 319 321 326 327 330 332 334 335 337 342 344 338 338 343 340 341 333 330 332 335 336 343 348 348 345 352 356 355 354 355 356 358 357 356 357 358 354
314 313 314 313 314 314 315 316 321 322 323 326 330 331 334 340 346 343 346 351 351 353 350 350 338 342 341 338 339 340 341 345 352 356 356 356 358 359 359 359 358 357 357 354
314 315 314 312 312 313 315 314 315 317 323 325 326 331 334 344 348 349 354 355 356 356 354 353 353 353 352 344 343 348 349 355 357 356 353 357 354 359 359 358 358 358 356 354
314 313 313 314 313 313 312 312 318 320 325 325 326 334 341 347 350 353 351 349 348 347 346 344 343 342 342 346 355 354 353 353 353 353 356 357 358 359 357 357 356 353 349 348
313 311 312 312 312 314 316 318 319 321 327 329 334 337 345 348 348 350 350 350 346 344 346 348 344 339 335 334 334 335 347 345 351 348 349 350 354 355 357 357 354 354 357 357
309 310 311 312 313 313 315 317 319 320 327 333 335 338 342 343 343 345 345 345 345 342 340 337 336 337 338 335 335 335 335 334 339 335 338 345 347 348 354 353 352 351 350 354
308 308 309 311 312 315 315 320 324 326 328 331 335 338 340 342 342 341 341 341 341 342 344 345 342 341 343 339 338 338 343 340 335 336 335 337 339 342 344 347 346 346 346 347
313 309 309 310 311 313 315 325 327 326 326 331 338 338 339 337 335 333 333 333 334 334 335 341 343 341 338 340 342 341 332 331 337 339 340 340 340 338 338 339 338 336 336 337
312 311 311 313 314 316 322 325 326 331 331 334 335 334 332 331 329 328 329 328 328 329 329 335 337 342 342 340 337 337 339 337 339 341 340 336 337 338 337 336 335 333 330 329
319 320 320 319 320 323 325 325 324 324 325 325 325 326 326 327 326 326 326 325 323 324 325 325 330 335 337 340 340 338 337 340 338 338 338 337 336 336 335 336 335 334 332 331
315 314 319 318 319 323 324 323 323 322 320 320 322 321 321 321 322 323 324 323 323 323 323 323 328 329 332 336 339 339 338 337 339 340 338 336 337 337 336 334 333 333 333 331
314 314 316 316 319 316 317 317 320 319 319 319 318 319 321 320 318 319 321 321 321 320 325 324 323 326 329 330 334 336 338 337 336 334 336 336 335 333 334 335 336 336 331 332
313 316 316 316 317 318 319 319 319 318 317 318 317 317 316 316 316 317 317 318 318 318 320 322 325 325 326 327 330 333 333 334 333 334 335 334 334 332 332 334 334 333 334 334
309 309 311 313 316 316 316 316 318 317 316 316 314 315 316 316 315 315 314 314 315 317 318 318 318 322 323 324 325 326 328 329 327 327 328 329 329 330 330 330 331 331 330 330
309 309 309 310 310 311 315 315 314 315 314 313 312 311 311 310 311 311 311 311 313 314 315 316 318 318 318 319 319 319 319 321 323 322 323 324 324 325 326 327 327 327 328 328
308 308 308 308 309 309 309 309 311 311 310 309 309 310 309 310 309 309 307 308 308 309 310 312 313 315 316 316 317 317 316 314 314 317 317 318 318 319 322 321 322 322 322 322
306 306 307 306 307 307 307 308 308 308 307 306 305 305 306 306 306 305 305 305 306 306 306 307 308 309 310 311 312 312 314 315 315 313 312 312 312 313 314 314 315 316 319 320
302 303 305 305 305 305 306 306 305 305 305 304 304 303 303 303 303 304 303 303 303 304 304 304 304 305 306 306 307 308 307 307 309 311 312 312 313 312 311 312 313 313 312 312
301 299 302 303 303 303 303 302 303 302 302 302 302 302 301 301 301 301 300 301 301 301 301 301 301 302 303 304 304 304 305 305 304 306 306 307 307 309 310 311 311 310 311 310

GFSNGP_850_thetae_042.txt.gz
Theta_e
332 333 334 331 330 330 332 334 334 333 334 335 336 336 337 336 337 338 340 341 344 346 349 350 351 354 355 355 357 357 356 360 359 359 359 359 359 355 349 345 344 343 344 347
333 333 333 334 331 331 331 330 332 333 333 335 336 334 336 336 335 336 337 338 339 339 341 342 351 351 352 354 356 356 358 358 359 359 360 360 359 358 357 353 349 345 342 341
332 332 334 335 334 332 332 332 331 334 336 336 337 337 337 334 333 333 333 333 334 336 337 340 342 348 353 352 353 354 356 357 359 360 360 360 359 360 360 355 354 351 345 340
329 332 336 334 333 333 333 332 332 333 335 337 338 335 333 333 333 333 333 333 332 333 333 333 335 340 345 351 354 351 353 353 355 358 360 360 360 360 360 360 357 352 349 345
328 331 333 333 332 333 332 333 332 334 334 333 333 334 334 333 333 332 332 332 332 334 333 333 337 341 344 344 348 352 352 353 353 356 358 359 360 359 360 360 360 358 354 349
325 329 332 333 331 331 331 333 334 332 332 333 332 333 342 341 341 341 342 343 342 343 339 338 339 337 340 343 346 346 343 342 348 351 354 358 360 360 360 359 359 360 357 356
321 324 328 329 327 328 332 338 334 335 335 332 336 340 339 339 339 340 341 342 342 343 342 337 335 335 336 341 342 343 342 344 347 346 346 352 359 363 362 361 362 364 363 361
319 322 326 323 324 330 331 326 326 328 329 332 333 334 333 333 335 337 338 340 346 345 343 339 333 337 338 336 337 337 340 342 347 348 349 352 360 363 365 364 363 362 363 363
318 320 325 319 320 319 320 322 323 322 322 325 327 326 325 327 330 331 336 339 346 350 344 340 339 344 343 339 338 339 344 349 347 350 352 356 361 363 366 365 364 363 363 364
316 317 319 317 317 317 317 318 318 318 319 319 322 322 321 323 328 331 334 338 343 351 354 351 350 353 351 346 346 348 345 347 353 355 356 359 359 363 363 363 363 363 366 364
315 316 316 315 315 316 316 316 317 317 317 318 319 320 319 324 328 330 336 337 346 355 359 361 358 360 360 360 356 358 357 358 357 358 360 362 360 364 364 362 365 364 362 361
316 315 315 316 315 316 317 316 316 317 317 318 318 319 321 321 325 330 336 344 349 354 353 358 357 361 363 362 362 362 361 360 360 361 362 362 365 359 363 364 362 362 362 363
310 309 311 312 312 314 316 316 317 317 317 317 318 320 320 320 321 324 334 339 347 353 354 354 354 354 355 357 362 361 362 361 361 360 362 365 364 365 361 362 362 361 361 361
308 307 309 310 311 313 314 315 316 316 316 316 317 317 318 319 320 321 333 337 347 353 353 352 350 351 352 353 359 361 361 360 359 359 359 363 362 363 364 362 361 359 359 358
317 317 314 316 314 313 312 313 315 316 317 317 316 317 318 319 323 323 333 337 348 351 351 347 348 349 350 351 350 353 351 352 351 352 352 354 356 357 355 356 356 353 348 344
318 318 317 316 314 314 313 313 314 315 316 316 317 317 318 320 327 330 330 338 346 347 346 345 343 346 347 348 351 349 346 345 347 343 344 339 340 339 338 338 338 338 338 336
315 315 314 314 313 312 312 314 314 314 315 316 318 319 321 324 330 329 331 342 342 343 343 343 343 343 346 349 345 343 343 345 345 344 343 344 343 341 339 340 341 341 338 335
315 315 316 315 314 313 314 315 316 317 317 317 318 321 324 327 331 332 335 338 338 338 339 342 342 343 343 345 345 343 343 344 343 340 341 340 341 342 342 340 339 338 338 336
312 313 314 314 314 315 317 316 316 316 317 320 322 320 321 320 320 324 321 327 329 331 331 335 336 337 339 340 341 341 342 342 341 340 339 340 338 337 337 336 335 333 334 334
310 311 311 311 311 312 313 313 314 314 314 314 314 316 318 317 315 317 319 318 318 319 326 327 331 333 335 336 337 336 337 337 337 336 337 337 336 335 333 333 333 333 333 333
311 310 310 310 310 311 312 312 312 312 312 312 312 311 312 313 314 316 317 318 317 318 320 321 322 326 328 331 332 332 332 333 335 334 333 334 334 334 333 333 331 332 332 332
308 310 310 311 309 309 309 309 310 312 311 308 308 310 310 310 310 311 314 314 315 316 316 317 318 319 320 322 324 325 324 325 326 328 327 326 327 328 329 329 329 329 329 330
305 308 310 308 309 309 308 307 307 308 308 308 308 308 307 306 306 307 306 310 311 312 312 313 313 315 316 319 321 321 320 320 322 322 321 321 322 322 322 322 322 323 324 325
303 306 307 309 308 308 308 307 306 306 308 306 305 305 305 305 306 305 305 306 307 309 308 310 311 312 312 314 314 315 315 315 317 317 317 316 317 317 316 316 315 315 316 320
303 306 306 306 306 307 306 306 306 306 305 304 304 304 303 304 303 303 303 304 304 304 306 306 307 308 309 309 310 310 310 311 314 315 315 315 315 315 314 314 313 312 312 311
304 305 305 305 305 305 305 304 304 303 304 304 303 302 302 302 302 301 302 302 302 303 303 302 304 305 305 306 306 307 307 309 310 309 309 309 311 313 313 313 313 312 311 310
304 303 305 305 304 304 303 303 302 302 301 302 302 301 300 300 300 300 300 300 301 300 300 300 300 301 301 302 302 302 303 303 304 306 307 308 307 307 307 307 307 306 307 309

GFSNGP_850_thetae_045.txt.gz
Theta_e
327 328 330 330 329 328 326 325 329 327 330 331 336 335 336 336 337 338 339 346 350 352 353 353 353 352 351 351 350 350 350 349 347 346 344 342 341 338 338 341 342 342 343 344
331 330 330 332 331 329 328 327 327 328 327 331 333 337 335 336 338 340 341 346 348 350 352 354 354 353 352 352 352 352 352 352 353 353 354 352 349 344 341 340 342 346 346 346
329 331 332 334 333 330 328 328 327 327 328 333 334 335 333 334 333 333 333 334 338 339 349 352 354 354 353 353 353 353 353 354 354 355 356 356 356 357 352 347 347 346 347 345
326 330 334 331 332 333 330 329 328 327 334 332 333 337 335 333 332 333 336 333 334 335 335 337 348 354 353 353 354 354 355 355 355 356 356 357 357 358 358 357 355 353 350 348
325 330 331 332 328 328 333 336 334 337 334 335 337 339 341 341 341 342 342 342 341 340 338 338 336 336 350 355 354 355 356 356 356 357 357 358 358 358 358 358 359 358 357 356
322 330 335 326 325 323 328 334 328 332 338 334 338 342 340 338 339 340 341 342 341 338 339 337 338 339 342 341 346 355 355 354 355 357 357 357 357 359 359 359 358 358 358 357
319 324 328 321 321 327 334 332 324 324 328 329 330 331 330 332 335 336 338 342 342 339 339 342 337 335 338 348 350 346 344 349 352 351 352 353 354 356 358 359 360 360 360 360
318 322 327 319 320 321 325 323 322 321 321 324 323 322 321 327 331 332 333 335 346 344 341 342 341 335 332 333 339 347 350 348 344 344 344 346 349 353 357 360 361 361 362 362
316 316 317 317 318 317 318 318 318 318 318 319 320 321 320 321 329 329 332 334 341 348 352 350 346 339 337 338 338 340 336 343 347 347 345 348 349 350 358 361 363 364 364 364
313 314 314 316 316 316 316 316 317 316 317 317 318 319 320 321 325 328 331 331 342 351 357 359 359 355 350 346 345 345 342 343 341 342 348 350 353 354 356 360 364 366 366 365
310 311 311 314 312 312 313 313 316 317 318 317 317 319 319 321 321 322 325 328 334 345 351 354 356 359 359 357 354 349 347 347 346 342 349 354 357 360 359 362 363 362 362 361
310 309 309 309 310 310 310 311 313 315 316 318 318 317 320 320 320 320 322 324 327 335 350 355 352 349 353 357 361 362 363 359 358 358 359 358 358 359 361 365 362 363 364 363
307 309 309 310 310 311 310 310 311 313 315 317 317 318 318 317 317 318 319 319 322 325 334 353 354 352 348 344 349 361 361 362 361 360 360 359 361 361 362 360 364 365 363 362
312 314 313 311 311 314 316 314 312 313 315 315 317 317 318 317 317 318 318 322 328 326 330 348 353 351 349 348 345 354 361 362 363 361 362 363 363 363 363 361 360 361 360 360
317 317 317 316 316 317 317 316 314 313 313 314 315 317 317 318 318 317 318 329 331 328 328 343 351 347 344 348 348 345 355 352 355 362 361 363 364 363 364 364 360 359 357 355
315 315 315 314 314 316 317 316 314 314 314 314 314 315 316 316 319 319 318 321 329 326 325 341 345 344 342 347 347 346 350 349 349 352 355 358 359 357 357 357 354 352 346 339
311 313 316 314 313 314 314 314 313 313 314 315 315 315 316 316 317 317 319 320 331 338 344 343 344 343 342 343 344 342 348 346 347 346 344 342 340 338 339 338 339 339 337 335
309 311 311 314 314 314 315 315 315 315 316 316 316 316 317 319 318 319 320 327 334 338 341 342 343 343 344 344 347 345 343 346 343 344 344 342 341 341 341 340 338 338 336 333
309 309 310 310 311 311 311 312 312 311 314 319 319 318 318 319 319 320 324 327 331 332 333 336 339 340 342 344 344 345 344 344 341 340 341 341 341 340 339 338 336 334 334 333
309 308 309 309 309 310 310 308 309 311 310 310 311 315 318 317 317 316 321 318 318 320 326 331 333 335 335 338 342 339 340 340 339 339 337 335 334 334 333 333 333 332 332 333
309 309 308 307 308 308 309 309 308 306 306 309 309 308 310 312 313 312 315 316 315 315 320 323 322 325 329 331 335 334 335 336 336 336 335 333 333 332 331 331 331 331 331 332
307 309 309 308 306 306 307 307 305 305 305 305 306 306 306 309 310 310 310 311 312 313 313 316 318 320 322 324 326 328 329 328 329 331 332 332 331 330 329 329 329 329 329 330
306 307 309 308 308 307 306 307 307 305 304 303 304 305 305 304 305 306 308 309 310 310 311 312 314 316 317 318 318 318 322 321 319 320 319 318 319 321 321 322 322 323 324 325
306 306 307 308 306 306 306 306 304 304 304 304 304 304 303 303 304 304 303 304 306 309 310 309 310 311 312 314 315 316 317 318 317 318 318 317 316 315 314 313 313 314 316 319
305 306 305 305 305 305 304 304 303 304 302 302 302 301 301 302 302 302 303 303 302 303 305 306 308 308 307 307 309 309 310 312 314 314 314 313 313 313 313 312 312 312 312 311
304 304 304 304 303 303 303 301 301 301 302 301 300 300 300 300 300 301 301 301 301 301 301 302 302 303 304 304 305 305 305 309 308 307 308 308 309 309 310 309 309 309 309 309
303 302 302 302 301 302 302 300 300 300 300 300 300 300 300 299 300 300 300 300 300 300 300 300 300 300 301 301 301 302 303 303 303 304 305 304 305 306 305 305 305 304 304 303

GFSNGP_850_thetae_048.txt.gz
Theta_e
314 316 319 321 327 325 322 322 323 323 324 324 323 326 328 330 331 337 345 348 350 350 350 349 349 349 349 349 349 349 348 347 343 342 344 343 340 338 335 333 333 334 335 338
312 320 323 326 330 329 324 324 324 322 323 323 327 332 334 337 334 339 345 349 351 351 350 350 350 349 349 350 350 349 349 349 348 346 342 341 340 337 335 333 332 334 337 337
317 324 329 330 325 330 326 323 323 324 322 330 332 336 337 329 335 340 344 348 351 351 351 350 350 350 350 350 350 350 349 349 349 349 348 346 345 344 342 340 336 335 335 338
315 321 332 325 321 322 328 326 326 331 332 332 339 339 340 342 343 342 342 344 347 351 351 351 351 351 350 350 350 350 350 350 350 351 351 352 352 353 352 352 351 348 344 341
319 326 329 325 322 321 321 324 321 326 335 339 338 337 336 338 341 345 344 342 340 342 349 351 352 352 352 351 351 351 351 351 351 352 352 352 353 355 355 356 356 356 356 355
314 328 331 321 320 319 323 323 319 321 322 328 333 334 332 334 337 340 344 344 342 340 338 340 344 353 354 354 353 352 352 352 352 352 353 353 353 354 355 356 356 356 357 356
317 327 325 317 318 321 326 324 318 318 320 320 320 322 328 331 335 335 341 345 345 341 339 338 336 337 342 351 355 354 354 354 354 353 354 354 355 356 356 357 357 357 357 357
316 324 325 315 317 318 315 315 315 317 317 318 319 321 324 326 329 333 337 346 349 349 348 343 336 334 332 338 343 348 355 355 355 355 356 357 356 356 356 357 358 358 359 359
312 316 314 313 315 315 313 312 312 314 316 317 318 319 319 321 322 325 328 339 348 353 355 354 348 334 333 337 338 341 340 343 352 354 355 355 354 353 354 355 358 359 360 360
308 310 309 309 311 312 310 310 310 312 314 317 318 318 319 319 320 322 322 329 337 350 354 355 355 357 353 352 349 346 345 343 337 340 346 349 350 350 351 351 352 355 358 361
308 308 309 310 311 309 310 311 311 311 311 315 317 319 319 318 318 319 320 321 326 336 349 354 353 352 349 347 353 357 355 350 344 340 338 341 346 351 353 353 354 353 354 357
310 308 308 308 308 310 311 313 312 311 311 313 316 317 318 318 317 317 317 317 319 324 330 348 354 353 351 343 340 339 347 356 358 355 352 353 352 353 358 358 357 359 359 361
313 312 309 309 310 313 313 313 313 315 313 311 313 316 317 318 318 318 317 319 328 328 325 326 346 350 350 344 339 339 341 351 359 361 364 363 361 361 361 360 360 360 362 360
312 315 313 315 314 315 313 314 316 316 315 313 314 313 316 317 317 318 318 317 322 327 326 322 332 338 348 346 341 337 341 351 359 358 361 361 362 361 359 359 360 360 364 362
312 313 315 314 313 314 315 314 316 316 315 315 313 313 313 315 316 316 318 318 317 316 318 324 323 329 343 345 341 341 345 349 354 353 356 361 362 362 363 364 363 361 359 356
311 311 313 313 315 314 315 315 315 314 314 314 314 314 314 313 314 316 315 315 315 314 313 320 320 322 327 340 342 341 346 347 349 351 353 358 361 362 363 364 363 358 355 355
309 309 311 311 310 311 311 311 312 312 313 314 314 314 315 315 315 316 316 314 315 316 320 332 329 327 328 342 340 340 345 345 347 347 349 351 355 358 360 359 354 345 342 338
308 308 308 309 308 308 308 308 308 310 311 314 315 315 317 319 318 317 316 317 317 320 324 332 332 335 338 339 336 337 343 343 346 345 345 343 342 344 346 345 341 339 336 334
307 308 309 308 307 307 307 307 307 306 308 313 318 317 317 316 316 316 319 322 322 324 329 332 333 334 340 341 340 340 346 345 345 345 341 339 339 340 339 338 336 334 333 333
308 307 307 307 307 306 306 306 306 307 306 306 309 312 313 313 315 316 318 318 317 318 324 327 331 333 337 337 339 341 345 344 343 343 342 341 340 339 337 336 334 333 332 332
307 309 307 307 307 306 305 305 305 305 305 306 306 307 308 310 312 313 314 315 314 316 318 322 325 329 333 336 338 341 341 340 340 338 338 337 337 336 334 333 332 332 332 331
307 309 308 307 306 305 305 304 304 304 304 303 304 304 305 306 308 309 310 312 311 312 313 317 320 321 325 330 332 333 333 332 331 332 333 332 332 331 330 330 330 330 330 329
306 308 308 307 307 305 304 304 304 303 302 302 303 302 302 302 303 305 306 308 308 310 310 311 315 317 320 324 324 324 322 324 323 321 324 326 325 327 326 325 325 325 325 325
305 304 306 306 305 304 304 304 303 302 302 301 301 301 302 302 304 302 302 304 307 307 308 308 309 310 313 315 317 318 318 318 317 316 316 315 314 314 315 315 317 316 317 317
305 304 303 303 303 301 301 301 302 301 300 300 300 300 301 301 301 302 301 301 302 303 305 305 307 309 309 309 308 311 313 313 313 313 314 313 312 313 312 311 311 310 311 312
303 303 302 302 302 302 301 300 300 300 300 300 300 300 300 300 300 300 300 300 300 301 301 302 303 305 304 305 307 308 307 307 308 308 308 308 308 307 306 304 304 304 305 304
302 301 301 301 301 301 300 300 300 300 299 299 300 300 299 299 299 300 300 300 300 300 300 300 301 301 301 302 302 303 304 304 304 305 306 305 304 304 303 303 302 301 300 298